sat.trackr.live / text

‹ back to catalog

STARLINK-37873

NORAD 69484 · 2026-131G

PAYLOAD ACTIVE UNKNOWN

§ Identity

Operator
Country
US
Launch date
2026-06-11
Launch site
AFWTR
Launch vehicle
Mass (kg)
RCS (m²)

Purposes: comms

External: N2YO · Heavens-Above · Gunter

§ Orbital elements

Epoch: 2026-09-20T00:45:58.463424Z

Period
93.91 min
Inclination
97.2843°
Eccentricity
0.0002357
Mean motion
15.33456863 rev/d
Perigee alt
463.9 km
Apogee alt
467.1 km
Semi-major
6,843.6 km
B*
4.8251e-4
RAAN
283.8733°
Arg perigee
107.3316°
Mean anomaly
252.8184°
Rev number
1,682

§ Raw data

STARLINK-378731 69484U 26131G   26263.03192666  .00015541  00000+0  48251-3 0  99942 69484  97.2843 283.8733 0002357 107.3316 252.8184 15.33456863 16829

JSON: /api/v1/satellites/69484 · /tle

For live sub-satellite position, see the globe view (requires WebGL).

§ Visibility from observer

Set your observer location to see the next 7 days of passes ≥ 10°. The values pass through the URL so the page stays shareable.

No JS? Fill the form by hand. The geolocation button needs JavaScript.